Location: Falconara Alta
(43.6167°N, 13.4000°E)
Time: 11:34:32
(UTC+00:00)

Cosmos 2369 Rocket - Pass Details

Date: 09 April 2020
Orbit: 829 x 852 km, 71.0° (Epoch: 03 June)

Event Time Altitude Azimuth Distance (km) Brightness Sun altitude
Rises 18:43:19 0° 325° (NW) 3,418 6.4 -11.2°
Reaches altitude 10° 18:46:05 10° 314° (NW) 2,474 5.9 -11.7°
Maximum altitude 18:50:48 28° 257° (WSW) 1,543 4.2 -12.5°
Drops below altitude 10° 18:55:29 10° 201° (SSW) 2,447 4.6 -13.2°
Sets 18:58:13 0° 189° (S) 3,372 5.2 -13.7°
